User: anonymous   Login
Location: Unspecified
(0.0000°N, 0.0000°E)
Time: 05:36:02
(UTC+00:00)
Language:

FAISAT-2V - Orbit

View from above orbital plane
View from above orbital plane
View from above satellite
View from above satellite

Ground track
Ground track

The orbit data is extracted from the following two-line orbital elements,

1 24954U 97052B   18112.42185937  .00000058  00000-0  40417-4 0  9992
2 24954  82.9244  55.4477 0040619  48.2657  91.3827 13.79967524 36269
Epoch (UTC): 22 April 2018 10:07:28
Eccentricity: 0.0040619
inclination: 82.9244°
perigee height: 934 km
apogee height: 994 km
right ascension of ascending node: 55.4477°
argument of perigee: 48.2657°
revolutions per day: 13.79967524
mean anomaly at epoch: 91.3827°
orbit number at epoch: 3626

The dashed part of the orbit path shows where the satellite is in the earth's shadow,  

DLR